Regional Weather Roundup
Issued by NWS

Home | Current Version | Previous Version | Graphics & Text | Print | Product List | Glossary Off
Versions: 1 2 3 4 5 6 7 8 9 10 11 12 13 14 15 16 17 18 19 20 21 22 23 24 25 26 27 28 29 30 31 32 33 34 35 36 37 38 39 40 41 42 43 44 45 46 47 48 49 50

000
ASUS43 KTOP 220759
RWRKS

WEATHER ROUNDUP FOR KANSAS
NATIONAL WEATHER SERVICE GOODLAND KS
300 AM CDT MON SEP 22 2014

NOTE:  "FAIR" INDICATES FEW OR NO CLOUDS BELOW 12,000 FEET WITH NO
SIGNIFICANT WEATHER AND/OR OBSTRUCTIONS TO VISIBILITY.

KSZ001>006-013>018-027>032-041>047-220900-
NORTHWEST KANSAS

CITY           SKY/WX    TMP DP  RH WIND       PRES   REMARKS
GOODLAND       MOCLDY    56  42  59 S9        30.31F
HAYS           PTCLDY    54  43  66 E6        30.30S
HILL CITY      MOCLDY    55  45  68 CALM      30.30S
RUSSELL        PTCLDY    51  45  79 SW5       30.29R
$$

KSZ061>065-074>080-084>089-220900-
SOUTHWEST KANSAS

CITY           SKY/WX    TMP DP  RH WIND       PRES   REMARKS
DODGE CITY     CLOUDY    57  41  55 E3        30.30F
ELKHART          N/A     53  44  71 SE7         N/A
GARDEN CITY    PTCLDY    56  44  64 SE6       30.30F
GREAT BEND     CLEAR     54  45  71 NE3       30.30S
LIBERAL        PTCLDY    63  43  48 E6        30.32S
$$

KSZ066>073-081>083-090>101-220900-
SOUTHEAST KANSAS

CITY           SKY/WX    TMP DP  RH WIND       PRES   REMARKS
CHANUTE        CLEAR     54  50  86 N3        30.26S
HUTCHINSON     CLEAR     57  46  66 E7        30.28S
NEWTON         CLEAR     55  43  62 E3        30.30S
PARSONS        CLEAR     54  51  90 NE3       30.25F
WICHITA INTL   PTCLDY    60  46  59 E7        30.26S
WICHITA JABRA  CLEAR     52  46  80 NE7       30.27S
WINFIELD       CLEAR     59  48  67 NE8       30.26F
$$

KSZ007>012-019>026-033>040-048>060-102>105-220900-
NORTHEAST KANSAS

CITY           SKY/WX    TMP DP  RH WIND       PRES   REMARKS
CONCORDIA      PTCLDY    51  47  86 CALM      30.29F
EMPORIA        CLEAR     54  49  83 N3        30.27F
LAWRENCE       CLEAR     50  46  86 NW3       30.27S
MANHATTAN      CLEAR     48  46  93 CALM      30.28F
OLATHE IND     CLEAR     52  49  89 CALM      30.27S
OLATHE EXE     CLEAR     56  49  77 CALM      30.26S
SALINA         CLEAR     55  47  74 CALM      30.29S
TOPEKA BILLARD CLEAR     52  49  89 CALM      30.28R
TOPEKA FORBES  CLEAR     50  46  86 N3        30.27S
$$


USA.gov is the U.S. government's official web portal to all federal, state and local government web resources and services.